Regional Weather Roundup
Issued by NWS

Home | Current Version | Previous Version | Graphics & Text | Print | Product List | Glossary On
Versions: 1 2 3 4 5 6 7 8 9 10 11 12 13 14 15 16 17 18 19 20 21 22 23 24 25 26 27
000
ASUS45 KTFX 240210
RWRMT
MONTANA REGIONAL WEATHER ROUNDUP
NATIONAL WEATHER SERVICE GREAT FALLS MT
700 PM MST FRI FEB 23 2018

NOTE: "FAIR" INDICATES FEW OR NO CLOUDS BELOW 12000 FEET WITH NO
SIGNIFICANT WEATHER AND/OR OBSTRUCTIONS TO VISIBILITY.

MTZ001>007-043-240300-
WEST OF THE DIVIDE

CITY           SKY/WX    TMP DP  RH WIND       PRES   REMARKS
KALISPELL      FAIR      18  11  74 SW9       30.07F WCI   7
MISSOULA       CLOUDY    22   8  55 NW8       30.10S WCI  12
BUTTE          FAIR      12   1  61 NW6       29.92R WCI   3
MULLAN PASS    LGT SNOW   6   4  91 VRB6G22   29.91F FOG     WCI  -4
ANACONDA         N/A     12   1  62 SW7       29.97R WCI   2
DEER LODGE       N/A      7   0  72 W6        29.99R WCI  -3
HAMILTON         N/A     19   5  53 MISG      30.08F
RONAN            N/A     21  12  68 VRB5      30.12F
$$

MTZ008-052>055-240300-
SOUTHWEST MONTANA

CITY           SKY/WX    TMP DP  RH WIND       PRES   REMARKS
BOZEMAN        FAIR      10   2  69 CALM      29.94S
DILLON         FAIR       7   2  80 S9        29.95R WCI  -7
ENNIS          CLEAR     16   0  48 S12       29.97R WCI   3
W YELLOWSTONE  LGT SNOW  14   9  79 SW7G15    29.89S WCI   4
THREE FORKS      N/A      6  -1  73 CALM      29.94S
TWIN BRIDGES     N/A     17   2  52 CALM      29.96R
$$

MTZ009-010-012-014-046-048-049-054-240300-
EAST SLOPES AND CENTRAL MONTANA

CITY           SKY/WX    TMP DP  RH WIND       PRES   REMARKS
CUT BANK       FAIR      15   9  76 W32G40    29.73S WCI  -6
GREAT FALLS    FAIR      16   5  62 SW18      29.83R WCI   0
MALMSTROM AFB  FAIR      18   8  66 SW23      29.86R WCI   0
HELENA         FAIR      20   6  55 W12       29.96R WCI   8
AUGUSTA        SNOWSHWR  13   7  78 W33G41    29.78R WCI  -9
BOWMANS CRNR   FAIR      10   1  69 SW10      29.81R WCI  -4
CHOTEAU          N/A     18   5  57 W23G29    29.78R WCI   0
CONRAD           N/A     20   8  59 S13       29.80  WCI   7
FAIRFIELD      FAIR      15   5  64 SW22      29.79R WCI  -2
POWER          FAIR      14   6  71 SW22      29.80R WCI  -5
RAYNESFORD     FAIR      18   4  53 W9        29.83R WCI   7
ULM            FAIR      17   7  64 SW20      29.85R WCI   1
WHITE SULPHUR    N/A     14   5  67 SW14      29.84R WCI  -1
$$

MTZ011-013-016-021-045-047-050-051-240300-
NORTH CENTRAL MONTANA

CITY           SKY/WX    TMP DP  RH WIND       PRES   REMARKS
HAVRE          FAIR      13   6  74 SW18      29.83R WCI  -4
LEWISTOWN      FAIR      16   6  65 SW18      29.81R WCI   0
N BAR RANCH    FAIR      21   0  39 W5G13     29.83R
CHINOOK          N/A      0  -6  78 E8        29.86F WCI -15
GEYSER         FAIR      17   5  59 W13       29.80R WCI   3
STANFORD       FAIR      16   4  58 W16       29.80R WCI   0
WINIFRED       FAIR      15   6  65 SW8       29.82S WCI   4
$$

MTZ017>020-022>027-061-062-240300-
NORTHEAST MONTANA

CITY           SKY/WX    TMP DP  RH WIND       PRES   REMARKS
GLASGOW        FAIR       0  -5  79 SE14      29.92F WCI -19
GLENDIVE       FAIR       5  -1  76 S14       30.01F WCI -12
JORDAN           N/A      4  -3  73 S3        29.91F
MALTA          CLEAR     -6 -11  77 CALM      29.89F
SIDNEY         FAIR       0  -7  72 S7        30.03F WCI -13
WOLF POINT     FAIR      -3  -9  75 CALM      29.99F
PLENTYWOOD       N/A      3  -2  78 SE9       29.97F WCI -11
POPLAR           N/A      9   1  72 S7        30.00F WCI  -3
$$

MTZ028>42-056>058-240300-
SOUTHCENTRAL AND SOUTHEAST MONTANA

CITY           SKY/WX    TMP DP  RH WIND       PRES   REMARKS
BAKER          FAIR       6  -1  73 S7        30.02R WCI  -6
BILLINGS       FAIR      17   7  64 SW15      29.90F WCI   2
LIVINGSTON     FAIR      15   6  67 W12       29.87R WCI   2
MILES CITY     FAIR       2  -3  80 S12       30.00S WCI -15
BIG TIMBER     CLEAR     19   7  58 SW21      29.87F WCI   3
FORSYTH          N/A      1  -4  78 NW5       29.97S
HARLOWTON      FAIR      18   4  55 SW7       29.84S WCI   8
LAUREL           N/A     14   5  67 SW15      29.93S WCI  -1
$$

REGIONAL REPORTS...DAKOTAS

CITY           SKY/WX    TMP DP  RH WIND       PRES   REMARKS
WILLISTON      FAIR      10   1  67 S9        30.04F WCI  -3
MINOT          FAIR       8   2  76 SE6       30.09F WCI  -2
DICKINSON      FAIR       6  -1  73 S10       30.03S WCI  -9
BEACH          FAIR       3  -2  78 S15       30.04F WCI -15
CROSBY         FAIR       5   0  78 S14G20    30.01F WCI -12
TIOGA          FAIR       0   0 100 CALM      30.03F
WATFORD CITY   FAIR       3  -2  78 CALM      30.03F
BISMARCK       FAIR       6   1  80 S5        30.19S
GRAND FORKS    FAIR       3   0  87 SW8       30.23S WCI -10
FARGO          FAIR       8   4  83 SW9       30.28R WCI  -5
BUFFALO SD       N/A      3  -4  72 S7        29.97F WCI  -9
RAPID CITY     FAIR      11   1  64 SE8       30.06F WCI  -1
$$

REGIONAL REPORTS...WYOMING/IDAHO/WASHINGTON

CITY           SKY/WX    TMP DP  RH WIND       PRES   REMARKS
GILLETTE       FAIR      15   6  67 S23       29.92F WCI  -3
SHERIDAN       FAIR       1  -5  75 CALM      29.93F
BUFFALO WY     FAIR      14   5  67 SW6       29.89S WCI   5
CODY           FAIR      11   5  77 CALM      29.90R
YELLOWSTONE LA   N/A      5   0  79 CALM      29.89R
IDAHO FALLS    FAIR      18  11  74 SW20      30.09S WCI   2
SALMON         FAIR      21  12  68 S5        30.08R
BOISE          FAIR      28  11  48 E5        30.24F
SPOKANE        LGT SNOW  21  19  92 S12       30.16F FOG     WCI   9
$$

REGIONAL REPORTS...ALBERTA

CITY           SKY/WX    TMP DP  RH WIND       PRES   REMARKS
CALGARY        CLOUDY    27   3  36 W21G30    29.59S WCI  13
EDMONTON       CLOUDY    28  21  74 SW7       29.52F WCI  21
FORT MCMURRAY  CLOUDY    25  18  74 S8        29.43S WCI  16
HIGH LEVEL     CLOUDY    21  18  86 N12       29.50R WCI   9
LETHBRIDGE     BLWGSNOW  21  12  68 W44G55    29.67S VSB 1/2 WCI   0
LLOYDMINSTER   MOCLDY    14   5  67 SW14      29.55F WCI  -1
MEDICINE HAT   CLEAR     19  12  73 SW22G28   29.68F WCI   3
MILK RIVER       N/A     18  10  73 W20G26      N/A  WCI   1
ONEFOUR          N/A     -2  -4  92 E10         N/A  WCI -19
PEACE RIVER    CLOUDY    30  18  59 W12       29.44S WCI  21
PINCHER CREEK  LGT SNOW  18  10  73 W45G55    29.71S VSB 3/4 WCI  -5
WATERTON GATE    N/A     18   5  57 SW38G51     N/A  WCI  -4
$$

REGIONAL REPORTS...SASKATCHEWAN

CITY           SKY/WX    TMP DP  RH WIND       PRES   REMARKS
CORONACH         N/A      1  -2  85 S14         N/A  WCI -17
CYPRESS HILLS    N/A      0  -4  85 SW5         N/A
ESTEVAN        CLEAR      3  -2  78 S9        30.01F WCI -11
MOOSE JAW        N/A     10   0  61 S23         N/A  WCI -10
PRINCE ALBERT  MOCLDY    14   7  73 S10       29.73F WCI   1
REGINA         CLEAR     10   3  72 S18       29.88F WCI  -8
ROCKGLEN         N/A      0  -6  78 S10         N/A  WCI -17
SASKATOON      PTCLDY    14   5  67 S17       29.73F WCI  -3
VAL MARIE        N/A     -6 -11  77 S6          N/A  WCI -18
$$




USA.gov is the U.S. government's official web portal to all federal, state and local government web resources and services.